#timestamp,LO_Frequency,Hit,StdDev 
1623042015.3,286047000.8,N
1623042035.1,286047000.3,N
1623042055.9,286047000.9,N
1623042075.7,286047000.7,N
1623042095.6,286047000.3,N
1623042115.4,286047000.8,N
1623042135.2,286047000.6,N
1623042155.1,286047000.9,N
1623042156.0,286047000.9,N
1623042175.8,286047000.7,N
1623042195.7,286047000.7,N
1623042215.5,286047000.9,N
1623042235.3,286046998.1,N
1623042255.2,286047000.6,N
1623042275.0,286047000.7,N
1623042275.9,286047000.7,N
1623042295.7,286047001.2,N
1623042315.6,286046998.2,N
1623042335.4,286047001.1,N
1623042355.3,286046998.2,N
1623042375.1,286046998.5,N
1623042395.8,286046998.2,N
1623042415.7,286046998.6,N
1623042435.5,286046998.6,N
1623042455.4,286046998.3,N
1623042475.2,286046998.2,N
1623042495.0,286046998.2,N
1623042495.9,286046998.2,N
1623042515.8,286047001.0,N
1623042535.6,286047001.2,N
1623042555.4,286047001.1,N
1623042575.3,286047001.0,N
1623042595.1,286047000.9,N
1623042615.9,286047001.1,N
1623042635.7,286047000.6,N
1623042655.5,286047000.6,N
1623042675.4,286047000.6,N
1623042695.2,286047000.9,N
1623042715.1,286047000.9,N
1623042716.0,286047000.9,N
1623042735.8,286047000.9,N
1623042755.6,286047001.0,N
1623042775.5,286047000.6,N
1623042795.3,286047001.2,N
1623042815.1,286047001.0,N
1623042835.9,286046998.1,N
1623042855.7,286047000.6,N
1623042875.6,286047001.2,N
1623042895.4,286047000.6,N
1623042915.2,286047001.0,N
1623042935.1,286046998.1,N
1623042936.0,286046998.1,N
1623042955.8,286047000.9,N
1623043005.7,286047000.9,E
1623043015.6,286047000.8,N
1623043035.4,286046998.1,P
1623043055.3,286046998.2,N
1623043075.1,286046998.1,N
1623043095.9,286046998.6,N
1623043115.7,286046998.6,N
1623043135.5,286046998.4,N
1623043155.4,286046998.3,N
1623043175.2,286046998.2,N
1623043195.1,286046998.8,N
1623043196.0,286046998.8,N
1623043215.8,286046998.4,N
1623043235.6,286046999.3,N
1623043255.5,286046998.4,N
1623043275.3,286046998.6,N
1623043295.1,286046998.6,N
1623043315.9,286046998.5,N
1623043335.7,286046998.6,N
1623043355.6,286047001.2,N
1623043375.4,286046998.6,N
1623043395.2,286046999.4,N
1623043415.1,286046998.7,N
1623043416.0,286046998.7,N
1623043435.8,286046998.9,N
1623043455.7,286046998.9,N
1623043475.5,286046999.4,N
1623043495.3,286046996.5,Y
1623043515.2,286046998.2,P
1623043535.0,286046998.3,P
1623043535.9,286046998.3,P
1623043555.8,286047001.1,Y
1623043575.6,286046999.8,P
1623043595.4,286047002.6,P
1623043615.3,286047002.1,N
1623043635.1,286047002.8,N
1623043655.8,286047002.2,N
1623043675.7,286047002.2,N
1623043695.5,286047002.8,N
1623043715.4,286047002.5,N
1623043735.2,286047002.6,N
1623043755.0,286046999.7,N
1623043755.9,286046999.7,N
1623043775.8,286047002.5,N
1623043795.6,286047001.9,N
1623043815.4,286047002.8,N
1623043835.3,286047002.5,N
1623043855.1,286047002.1,N
1623043875.9,286046999.8,N
1623043895.7,286047002.2,N
1623043915.5,286047002.8,N
1623043935.4,286047002.7,N
1623043955.2,286047002.1,N
1623043975.0,286047002.5,N
1623043975.9,286047002.5,N
1623043995.8,286047002.3,N
1623044015.6,286047002.5,N
1623044035.5,286047002.6,N
1623044055.3,286047002.1,N
1623044075.1,286047002.3,N
1623044095.9,286047002.8,N
1623044115.7,286047002.5,N
1623044135.6,286047002.0,N
1623044155.4,286047002.2,N
1623044175.2,286047001.9,N
1623044195.1,286047002.2,N
1623044196.0,286047002.2,N
1623044215.8,286047002.1,N
1623044235.6,286047002.5,N
1623044255.5,286047001.9,N
1623044275.3,286047002.1,N
1623044295.2,286047000.1,N
1623044315.9,286047002.5,Y
1623044335.7,286046998.4,P
1623044355.6,286047001.1,N
1623044375.4,286046998.3,N
1623044395.2,286047000.7,N
1623044415.1,286047000.9,N
1623044416.0,286047000.9,N
1623044435.8,286047000.9,N
1623044455.7,286047001.2,N
1623044475.5,286047000.4,N
1623044495.3,286047000.8,N
1623044515.2,286047000.5,N
1623044535.0,286047000.3,N
1623044535.9,286047000.3,N
1623044555.8,286047000.5,N
1623044575.6,286047000.6,N
1623044595.4,286047000.6,N
1623044615.3,286047000.4,N
1623044635.1,286047000.9,N
1623044655.8,286047001.1,N
1623044675.7,286047000.7,N
1623044695.5,286047001.1,N
1623044715.4,286046998.4,N
1623044735.2,286046998.4,N
1623044755.0,286046998.6,N
1623044755.9,286046998.6,N
1623044775.8,286046998.9,N
1623044795.6,286046998.5,N
1623044815.4,286046998.8,N
1623044835.3,286046998.8,N
1623044855.1,286046998.5,N
1623044875.9,286046998.2,N
1623044895.7,286047001.2,N
1623044915.5,286046998.6,N
1623044935.4,286046998.3,N
1623044955.2,286046998.6,N
1623044975.0,286046998.1,N
1623044976.0,286046998.1,N
1623044995.8,286047000.9,N
1623045015.6,286047001.1,N
1623045035.5,286046998.5,N
1623045055.3,286047000.9,N
1623045075.1,286047000.8,N
1623045095.9,286047000.7,N
1623045115.7,286047000.9,N
1623045135.6,286047000.3,N
1623045155.4,286047000.4,N
1623045175.2,286047000.6,N
1623045195.1,286047001.1,N
1623045196.0,286047001.1,N
1623045215.8,286046998.4,N
1623045235.6,286046998.5,N
1623045255.5,286047001.0,N
1623045275.3,286047000.9,N
1623045295.2,286047001.1,N
1623045315.9,286047001.2,N
1623045335.7,286046998.1,N
1623045355.6,286047000.9,N
1623045375.4,286047000.9,N
1623045395.2,286046998.5,N
1623045415.1,286047001.2,N
1623045416.0,286047001.2,N
1623045435.8,286046998.3,N
1623045455.7,286046998.3,N
1623045475.5,286046998.8,N
1623045495.3,286046998.4,N
1623045515.2,286047001.2,N
1623045535.0,286047001.2,N
1623045535.9,286047001.2,N
1623045555.8,286046998.7,N
1623045575.6,286047000.7,N
1623045595.4,286046998.2,N
